Terug naar catalogus

STARLINK-30712

ActiefCommunicatieVLEO
NORAD 57935·PAYLOAD·🇺🇸 United States

Gelanceerd Sep 25, 2023 vanaf Vandenberg Space Force Base

Loading…

Volgende Passages (komende 24 uur)

TLE

VersSource: CelesTrak SupGP

Epoch: Sep 14, 2026, 20:51 UTC

1 57935C 23148A   26257.86923611  .00038096  00000+0  11254-2 0  2572
2 57935  53.1582 221.8238 0001421  96.4405 116.4129 15.34375491    14

Volg STARLINK-30712 in realtime met AllMySat

Download on the App Store